Tracking 25707 objects as of 29-Jun-2022
HD Live streaming from Space Station
objects crossing your sky now

STARLINK-2696

Track STARLINK-2696 now!
10-day predictions
STARLINK-2696 is classified as:


NORAD ID: 48484
Int'l Code: 2021-040BJ
Perigee: 553.1 km
Apogee: 555.7 km
Inclination: 53.1 °
Period: 95.6 minutes
Semi major axis: 6925 km
RCS: Unknown
Launch date: May 9, 2021
Source: United States (US)
Launch site: AIR FORCE EASTERN TEST RANGE (AFETR)
aabbcc
Your satellite tracking list
Your tracking list is empty




NASA's NSSDC Master Catalog

Two Line Element Set (TLE):
1 48484U 21040BJ  22180.26833980 -.00000298  00000-0 -11236-5 0  9996
2 48484  53.0556 139.7701 0001860  61.9188 298.1989 15.06383577 62953
Source of the keplerian elements: AFSPC